Regional Weather Roundup
Issued by NWS Upton, NY

Current Version | Previous Version | Graphics & Text | Print | Product List | Glossary Off
Versions: 1 2 3 4 5 6 7 8 9 10 11 12 13 14 15 16 17 18 19 20 21 22 23 24 25 26 27 28 29 30 31 32 33 34 35 36 37 38 39 40 41 42 43 44 45 46 47 48 49 50

000
ASUS41 KOKX 271309
RWROKX

REGIONAL WEATHER ROUNDUP
NATIONAL WEATHER SERVICE NEW YORK NY
900 AM EDT TUE JUN 27 2017

NOTE: "FAIR" INDICATES FEW OR NO CLOUDS BELOW 12,000 FEET WITH NO
SIGNIFICANT WEATHER AND/OR OBSTRUCTIONS TO VISIBILITY.

NYZ071-072-176-178-NJZ106-104-271400-
NEW YORK CITY METRO AREA

CITY           SKY/WX    TMP DP  RH WIND       PRES   REMARKS
Central Park   MOSUNNY   65  61  87 CALM      30.03F
Bronx Bot Gard   N/A     66  57  72 E3        30.03R
LaGuardia APRT PTSUNNY   65  60  84 NE6       30.00F
Kennedy INTL   MOSUNNY   69  62  78 NE3       30.01F
Breezy Point     N/A     64 N/A N/A NE2         N/A
Newark/Liberty PTSUNNY   70  60  70 W3        30.00S
Teterboro      MOSUNNY   67  60  78 S3        30.00S
$$

NYZ177-179-078>081-271400-
LONG ISLAND NEW YORK

CITY           SKY/WX    TMP DP  RH WIND       PRES   REMARKS
Jones Beach      N/A     63 N/A N/A NE7         N/A
Matinecock PT    N/A    N/A N/A N/A E8          N/A
Farmingdale    NOT AVBL
MacArthur/ISP  CLOUDY    64  61  90 E6        30.00R
Shirley        LGT RAIN  63  61  93 VRB6      30.01  FOG
Mt Sinai Harb    N/A    N/A N/A N/A E7          N/A
Westhampton    CLOUDY    68  60  75 NE9       30.02F
East Hampton   CLOUDY    66  62  85 CALM      30.02R
Montauk          N/A     71  63  75 W7        30.03R
$$

NYZ052-065-067-271400-
HUDSON VALLEY

CITY           SKY/WX    TMP DP  RH WIND       PRES   REMARKS
White Plains   MOSUNNY   65  59  81 VRB3      30.00F
Larchmont Harb   N/A     61 N/A N/A N7          N/A
Croton O-T Hud   N/A     64 N/A N/A MISG        N/A
Newburgh       PTSUNNY   63  59  88 W7        30.03S
Montgomery     PTSUNNY   63  57  81 CALM      30.01
Poughkeepsie   PTSUNNY   64  56  75 SW3       30.00F
Albany         CLOUDY    60  56  86 SE5       30.01R
$$

NJZ001-105-106-008-010-013-015-019>022-104-271400-
NEW JERSEY

CITY           SKY/WX    TMP DP  RH WIND       PRES   REMARKS
Newark/Liberty PTSUNNY   70  60  70 W3        30.00S
Teterboro      MOSUNNY   67  60  78 S3        30.00S
Caldwell       CLOUDY    66  58  75 N3        30.01
Somerville     CLOUDY    63  61  93 CALM      30.01R
Linden         PTSUNNY   68  59  71 CALM      30.01S
Perth Amboy      N/A     64 N/A N/A S1          N/A
Sussex         CLOUDY    61  57  87 CALM      30.02
Andover          N/A     61  56  83 SW3       30.03S
Trenton        CLOUDY    64  60  87 SW6       30.03R
Millville      LGT RAIN  63  62  97 CALM      30.04
Atlantic City  LGT RAIN  69  60  73 W5        30.03R
Wrightstown    CLOUDY    65  61  85 NW8       30.01R
Toms River     MOSUNNY   71  58  63 CALM      30.02
Belmar         SUNNY     71  55  56 NW3       30.02
$$

PAZ047>061-062-071-271400-
EASTERN PENNSYLVANIA

CITY           SKY/WX    TMP DP  RH WIND       PRES   REMARKS
Philadelphia   CLOUDY    66  61  84 S5        30.03R
Allentown      CLOUDY    64  55  72 CALM      30.03
Scranton       CLOUDY    59  56  89 SW5       30.02F
$$

CTZ002-004>006-009-010-012-RIZ004-006-007-MAZ004-011-015-271400-
SOUTHERN NEW ENGLAND
 IN CT

CITY           SKY/WX    TMP DP  RH WIND       PRES   REMARKS
Bradley INTL   CLOUDY    60  58  92 S3        30.02F
Hartford       LGT RAIN  61  59  93 SE6       30.02F
Danbury        SUNNY     63  57  82 CALM      30.02
Wtrbury/Oxford PTSUNNY   61  54  77 CALM      30.01F
Bridgeport     MOSUNNY   66  60  81 E5        29.99F
Meriden        CLOUDY    60  58  92 CALM      30.01F
New Haven      PTSUNNY   63  60  90 NE5       30.00F
Chester        LGT RAIN  61  57  88 N7        30.02F
Groton         CLOUDY    67  62  84 CALM      30.02R
Wilimantic     LGT RAIN  63  58  83 CALM      30.04S

 IN RI

CITY           SKY/WX    TMP DP  RH WIND       PRES   REMARKS
Providence     CLOUDY    66  64  93 S3        30.02S
Block Island   SUNNY     69  64  84 SW8       30.03S
Westerly       PTSUNNY   69  64  84 SW6       30.03R
 IN MA

CITY           SKY/WX    TMP DP  RH WIND       PRES   REMARKS
Boston         PTSUNNY   67  59  75 SE5       30.00S
Worcester      LGT RAIN  62  52  69 SW17G23   30.04R
Westfield      CLOUDY    59  57  93 S3        30.03S
Provincetown   SUNNY     70  63  78 SW12      30.02S
Nantucket      SUNNY     67  64  90 S13       30.04S
$$

ANZ330-335-338-340-345-350-353-355-271400-
COASTAL MARINE OBSERVATIONS


STATION/POSITION TIME  SKY/WX   TEMP    WIND        PRES    VSBY  WAVE
                                AIR SEA DIR/SP/G                  HT/PER
                 (UTC)          (F)     (DEG/KT/KT) (MB)    (MI)  (FT/S)
NY HARB ENTRANCE 1150            65 67   40/ 12/ 14 1015.6          1/ 8
20 S FIRE ISLAND 1250            66 69   60/ 12/ 14 1015.2          2/ 3
GREAT SOUTH BAY  1215            65 75   30/  8/ 12   N/A
23 SSW MONTAUK P 1150            67 65              1016.5          2/ 7
15 E BARNEGAT LI 1230               65                N/A           1/ 8
HUDSON CANYON    1150            69 67  170/  8/ 10 1016.2          2/ 8
KINGS POINT      1242            65 65   70/  1/  4 1015.8
EXECUTION ROCKS  1245            65      90/  8/ 10   N/A
CENTRAL LI SOUND 1215            65     320/ 10/ 16   N/A           1
EASTERN LI SOUND NOT AVBL
ROBBINS REEF     1236                   350/  1/  2 1016.6
$$


>>>>>>>>>>>>>>>>>>>>>>>>>>>> KEY <<<<<<<<<<<<<<<<<<<<<<<<<<<
>                                                          <
>     SKY/WX - Sky Condition/Present Weather               <
>     TMP    - Temperature in Fahrenheit                   <
>     DP     - Dew Point in Fahrenheit                     <
>     RH     - Relative Humidity in Percent                <
>     WIND   - Direction (from) and Speed in MPH           <
>     PRES   - Mean Sea Level Pressure (inches of Hg)      <
>     WCI    - Wind Chill Index                            <
>     VSB    - VISIBILITY IN MILES                         <
>     HX     - HEAT INDEX                                  <
>     TC     - TEMPERATURE IN CELSIUS                      <
>     VRB    - VARIABLE WIND DIRECTION                     <
>                                                          <
>>>>>>>>>>>>>>>>>>>>>>>>>>>> KEY <<<<<<<<<<<<<<<<<<<<<<<<<<<



USA.gov is the U.S. government's official web portal to all federal, state and local government web resources and services.